Cloud_Cover
3 0 1 1 0 8 2 4 0 0 15 1 14 0 0 3 6 5 24 3 42 100 44 52 5 5 87 99 90 33 100 100 100 100 100 100 100 99 100 100 29 60 54
0 0 0 2 3 10 4 2 0 0 3 0 42 0 0 4 0 5 4 0 52 98 100 23 2 2 5 52 100 100 100 100 100 100 100 100 100 100 97 50 80 92 10
0 0 0 0 3 1 7 7 0 0 2 0 0 4 0 0 0 0 0 0 0 0 0 0 3 1 0 2 22 100 79 8 22 67 92 100 99 58 91 67 60 12 18
0 0 0 0 5 4 7 7 0 0 1 0 3 20 0 0 0 0 0 0 0 0 0 0 0 0 0 0 0 4 79 67 31 5 26 44 88 64 70 61 15 45 47
0 0 0 0 0 0 8 3 11 1 1 0 7 11 0 0 0 0 0 0 0 0 0 0 0 0 0 0 0 0 4 5 88 87 48 49 16 21 14 5 5 11 35
0 0 0 0 0 0 0 0 2 5 1 12 0 1 0 0 0 0 0 0 0 0 0 15 5 3 1 0 0 5 4 3 1 33 51 98 99 70 43 80 26 11 7
17 5 0 0 0 0 0 0 0 0 0 2 0 4 0 0 0 0 0 0 0 0 0 0 0 0 0 0 0 0 0 0 0 0 0 7 4 12 26 7 13 6 11
12 16 0 0 0 0 8 0 0 0 0 0 0 0 11 10 0 0 0 0 1 8 0 0 0 0 0 0 0 0 0 0 0 0 0 0 0 0 1 5 8 10 8
20 23 18 1 9 0 0 0 0 0 0 0 0 0 0 0 0 0 0 17 20 0 0 0 0 0 0 0 0 0 0 0 0 0 0 0 0 2 0 0 0 0 0
40 41 34 20 11 8 0 0 0 0 0 0 0 0 0 0 0 0 0 0 1 0 0 0 0 0 0 0 0 0 0 0 0 0 0 0 0 14 4 3 4 0 0
50 46 34 47 32 22 14 6 1 0 0 0 0 0 0 0 0 0 0 0 0 0 0 0 0 0 0 0 0 0 0 0 0 2 1 0 12 5 19 26 10 7 3
41 43 29 39 28 18 2 16 8 0 0 0 0 0 0 0 0 0 0 0 0 0 0 0 0 0 0 0 0 0 0 0 0 0 1 0 1 7 11 7 6 12 14
0 20 24 23 10 4 5 28 29 22 8 0 0 0 0 0 0 0 0 0 0 0 16 0 0 0 0 0 0 0 0 0 9 2 0 0 0 0 0 0 0 0 0
0 0 8 9 13 0 11 16 7 14 9 14 0 0 0 11 0 0 0 0 63 100 94 6 0 0 0 0 0 0 0 0 1 0 0 0 0 0 0 0 0 0 0
0 0 0 1 11 3 1 0 4 0 8 1 0 0 3 0 0 0 6 18 0 0 0 0 0 0 0 0 0 0 0 0 0 0 0 0 0 0 0 0 0 0 0
0 0 0 0 0 0 1 0 6 0 0 0 0 0 0 0 0 0 0 0 0 0 0 0 0 0 0 0 0 5 5 0 0 0 0 0 0 0 0 0 0 0 0
0 0 0 0 0 0 0 0 0 0 0 0 0 0 0 0 0 0 0 0 0 0 0 1 0 0 0 0 1 5 2 0 0 0 2 3 3 3 4 0 0 0 0
0 0 0 0 0 0 0 0 0 0 0 0 0 0 0 0 0 0 0 0 0 3 4 5 5 5 5 5 4 0 0 3 4 0 0 0 0 0 0 0 0 0 0
0 0 0 0 0 0 0 0 0 0 0 0 0 0 0 0 1 2 5 5 5 5 5 5 5 5 5 5 5 5 2 2 2 4 5 5 5 3 4 5 5 5 5
0 0 0 0 0 0 0 0 0 3 5 5 5 5 5 5 5 5 30 55 66 61 40 43 21 8 5 5 5 5 5 5 5 5 5 5 5 4 5 7 5 14 5
4 0 0 0 1 5 7 5 5 5 5 5 5 5 5 5 5 5 5 5 17 38 36 6 15 56 5 5 5 5 5 5 5 5 32 22 56 5 13 100 60 5 5
5 6 5 5 5 5 5 5 5 5 5 5 5 5 5 5 5 5 5 5 7 10 8 24 56 66 63 30 5 5 5 5 5 5 22 33 5 5 42 71 5 5 5
5 5 5 22 19 5 5 5 7 5 5 5 5 27 11 5 5 10 12 22 93 96 44 23 40 56 57 9 5 5 5 5 19 5 10 21 29 82 91 66 5 5 5
18 5 5 5 5 17 8 5 5 5 5 5 5 9 5 5 6 5 6 30 56 68 10 43 95 98 100 90 81 50 72 62 5 5 14 56 56 71 100 80 5 5 5
30 15 5 5 5 10 15 36 78 100 90 19 23 20 39 5 5 5 13 8 87 60 27 48 92 100 99 85 98 96 90 56 7 6 7 5 5 49 100 94 10 100 100
64 84 45 5 26 26 13 5 5 34 99 100 100 100 96 27 6 12 5 6 10 25 68 23 65 60 44 80 97 100 93 63 50 51 98 65 62 100 100 100 100 100 100